sat.trackr.live / text

‹ back to catalog

SDA_1667

NORAD 65977 · 2025-230D

PAYLOAD ACTIVE UNKNOWN

§ Identity

Operator
Country
US
Launch date
2025-10-15
Launch site
AFWTR
Launch vehicle
Mass (kg)
RCS (m²)

External: N2YO · Heavens-Above · Gunter

§ Orbital elements

Epoch: 2026-09-20T08:14:43.823328Z

Period
104.24 min
Inclination
81.2977°
Eccentricity
0.0001290
Mean motion
13.81447795 rev/d
Perigee alt
957.8 km
Apogee alt
959.7 km
Semi-major
7,336.9 km
B*
8.8173e-5
RAAN
124.3366°
Arg perigee
64.3256°
Mean anomaly
295.8032°
Rev number
4,692

§ Raw data

SDA_16671 65977U 25230D   26263.34356277  .00000106  00000+0  88173-4 0  99992 65977  81.2977 124.3366 0001290  64.3256 295.8032 13.81447795 46922

JSON: /api/v1/satellites/65977 · /tle

For live sub-satellite position, see the globe view (requires WebGL).

§ Visibility from observer

Set your observer location to see the next 7 days of passes ≥ 10°. The values pass through the URL so the page stays shareable.

No JS? Fill the form by hand. The geolocation button needs JavaScript.

§ Radio — SatNOGS DB

ModeDescriptionDownlinkUplink
FM S-band telemetry 2.226 GHz

1 transmitter · refreshed weekly from db.satnogs.org